TimeCDT,TemperatureF,Dew PointF,Humidity,Sea Level PressureIn,VisibilityMPH,Wind Direction,Wind SpeedMPH,Gust SpeedMPH,PrecipitationIn,Events,Conditions,WindDirDegrees,DateUTC
12:55 AM,33.1,25.0,72,30.19,10.0,SSE,6.9,-,N/A,,Overcast,150,2013-03-30 05:55:00
1:55 AM,34.9,24.6,66,30.17,10.0,SSE,6.9,-,N/A,,Overcast,150,2013-03-30 06:55:00
2:55 AM,36.9,26.4,66,30.14,10.0,SE,8.1,-,N/A,,Overcast,130,2013-03-30 07:55:00
3:55 AM,37.9,26.4,63,30.12,10.0,SSE,6.9,-,N/A,,Overcast,160,2013-03-30 08:55:00
4:55 AM,39.7,26.1,58,30.11,10.0,South,10.4,-,N/A,,Partly Cloudy,170,2013-03-30 09:55:00
5:55 AM,39.4,26.6,60,30.08,10.0,SSE,8.1,-,N/A,,Mostly Cloudy,150,2013-03-30 10:55:00
6:55 AM,38.8,26.6,61,30.06,10.0,SE,8.1,-,N/A,,Overcast,140,2013-03-30 11:55:00
7:55 AM,39.2,27.3,62,30.04,10.0,SE,8.1,-,N/A,,Overcast,140,2013-03-30 12:55:00
8:55 AM,40.8,28.0,60,30.01,10.0,South,12.7,-,N/A,,Scattered Clouds,170,2013-03-30 13:55:00
9:55 AM,42.8,30.2,61,29.99,10.0,South,15.0,21.9,N/A,,Mostly Cloudy,170,2013-03-30 14:55:00
10:55 AM,46.0,32.7,60,29.98,10.0,South,12.7,19.6,N/A,,Mostly Cloudy,190,2013-03-30 15:55:00
11:55 AM,48.4,32.9,55,29.96,10.0,SSW,17.3,29.9,N/A,,Mostly Cloudy,210,2013-03-30 16:55:00
12:55 PM,47.7,32.4,55,29.93,10.0,South,11.5,20.7,N/A,,Scattered Clouds,180,2013-03-30 17:55:00
1:55 PM,49.5,34.2,56,29.91,10.0,SSW,16.1,27.6,N/A,,Mostly Cloudy,200,2013-03-30 18:55:00
2:55 PM,48.6,35.8,61,29.88,10.0,SSW,11.5,17.3,N/A,,Overcast,200,2013-03-30 19:55:00
3:38 PM,48.2,37.4,66,29.86,10.0,South,10.4,17.3,N/A,,Mostly Cloudy,190,2013-03-30 20:38:00
3:47 PM,48.2,37.4,66,29.86,10.0,SSW,9.2,-,N/A,Rain,Light Rain,210,2013-03-30 20:47:00
3:55 PM,47.8,38.8,71,29.86,10.0,SSW,8.1,19.6,0.00,Rain,Light Rain,210,2013-03-30 20:55:00
4:27 PM,44.6,41.0,87,29.88,2.5,West,8.1,-,N/A,Rain,Rain,270,2013-03-30 21:27:00
4:29 PM,44.6,41.0,87,29.88,2.0,West,6.9,-,N/A,Rain,Rain,280,2013-03-30 21:29:00
4:53 PM,42.8,42.8,100,29.88,1.8,Calm,Calm,-,N/A,Rain,Rain,0,2013-03-30 21:53:00
4:55 PM,43.7,42.8,97,29.88,1.8,Calm,Calm,-,0.10,Rain,Rain,0,2013-03-30 21:55:00
5:05 PM,42.8,42.8,100,29.86,1.8,Calm,Calm,-,N/A,Rain,Light Rain,0,2013-03-30 22:05:00
5:06 PM,42.8,42.8,100,29.86,2.0,Variable,3.5,-,N/A,Rain,Light Rain,0,2013-03-30 22:06:00
5:09 PM,44.6,42.8,93,29.86,2.5,SSW,6.9,-,N/A,Rain,Light Rain,210,2013-03-30 22:09:00
5:10 PM,44.6,42.8,93,29.86,3.0,SSW,6.9,-,N/A,Rain,Light Rain,200,2013-03-30 22:10:00
5:14 PM,44.6,42.8,93,29.85,4.0,South,9.2,-,N/A,Rain,Light Rain,180,2013-03-30 22:14:00
5:23 PM,44.6,42.8,93,29.85,7.0,South,6.9,-,N/A,Rain,Light Rain,170,2013-03-30 22:23:00
5:44 PM,44.6,42.8,93,29.84,9.0,South,6.9,-,N/A,,Mostly Cloudy,190,2013-03-30 22:44:00
5:55 PM,44.8,42.6,92,29.84,10.0,SSW,10.4,-,0.04,,Overcast,200,2013-03-30 22:55:00
6:14 PM,44.6,42.8,93,29.84,5.0,SW,10.4,18.4,N/A,,Overcast,220,2013-03-30 23:14:00
6:41 PM,44.6,42.8,93,29.84,4.0,SW,10.4,-,N/A,,Overcast,220,2013-03-30 23:41:00
6:52 PM,44.6,42.8,93,29.85,5.0,SW,8.1,-,N/A,,Overcast,230,2013-03-30 23:52:00
6:55 PM,43.9,42.8,96,29.84,5.0,SW,8.1,-,N/A,,Overcast,230,2013-03-30 23:55:00
7:04 PM,44.6,42.8,93,29.84,5.0,SW,9.2,-,N/A,,Overcast,230,2013-03-31 00:04:00
7:28 PM,42.8,42.8,100,29.84,8.0,WSW,10.4,-,N/A,,Overcast,240,2013-03-31 00:28:00
7:55 PM,42.6,42.3,99,29.84,8.0,West,10.4,-,N/A,,Overcast,260,2013-03-31 00:55:00
8:03 PM,42.8,41.0,93,29.85,6.0,West,9.2,-,N/A,,Overcast,270,2013-03-31 01:03:00
8:05 PM,42.8,41.0,93,29.85,5.0,West,9.2,-,N/A,,Light Drizzle,270,2013-03-31 01:05:00
8:11 PM,42.8,41.0,93,29.85,4.0,WNW,12.7,-,N/A,,Light Drizzle,290,2013-03-31 01:11:00
8:18 PM,41.0,41.0,100,29.85,3.0,WNW,9.2,-,N/A,,Light Drizzle,290,2013-03-31 01:18:00
8:19 PM,41.0,41.0,100,29.85,3.0,WNW,8.1,-,N/A,,Overcast,300,2013-03-31 01:19:00
8:20 PM,41.0,41.0,100,29.85,2.5,WNW,8.1,-,N/A,,Overcast,300,2013-03-31 01:20:00
8:24 PM,41.0,41.0,100,29.85,2.0,WNW,8.1,-,N/A,,Overcast,290,2013-03-31 01:24:00
8:39 PM,41.0,41.0,100,29.86,2.0,WNW,9.2,-,N/A,,Light Drizzle,290,2013-03-31 01:39:00
8:48 PM,41.0,41.0,100,29.86,2.5,WNW,10.4,-,N/A,,Overcast,290,2013-03-31 01:48:00
8:52 PM,41.0,41.0,100,29.86,3.0,WNW,10.4,-,N/A,,Overcast,290,2013-03-31 01:52:00
8:55 PM,40.5,40.3,99,29.86,3.0,WNW,8.1,-,0.00,,Overcast,290,2013-03-31 01:55:00
9:05 PM,41.0,39.2,93,29.86,3.0,West,9.2,-,N/A,,Light Drizzle,280,2013-03-31 02:05:00
9:07 PM,41.0,39.2,93,29.86,3.0,WNW,8.1,-,N/A,,Light Drizzle,290,2013-03-31 02:07:00
9:08 PM,41.0,39.2,93,29.86,2.5,WNW,8.1,-,N/A,,Light Drizzle,290,2013-03-31 02:08:00
9:11 PM,41.0,39.2,93,29.86,2.5,WNW,8.1,-,N/A,,Overcast,290,2013-03-31 02:11:00
9:13 PM,41.0,39.2,93,29.86,3.0,WNW,8.1,-,N/A,,Overcast,290,2013-03-31 02:13:00
9:18 PM,39.2,39.2,100,29.86,3.0,WNW,9.2,-,N/A,,Overcast,290,2013-03-31 02:18:00
9:20 PM,39.2,39.2,100,29.86,4.0,WNW,9.2,-,N/A,,Overcast,290,2013-03-31 02:20:00
9:27 PM,39.2,39.2,100,29.86,4.0,WNW,9.2,-,N/A,,Overcast,290,2013-03-31 02:27:00
9:55 PM,39.6,39.2,99,29.86,5.0,WNW,8.1,-,0.00,,Overcast,300,2013-03-31 02:55:00
10:04 PM,39.2,39.2,100,29.86,5.0,WNW,5.8,-,N/A,,Overcast,290,2013-03-31 03:04:00
10:18 PM,39.2,39.2,100,29.86,4.0,WNW,4.6,-,N/A,,Overcast,290,2013-03-31 03:18:00
10:25 PM,39.2,39.2,100,29.86,3.0,WNW,4.6,-,N/A,,Overcast,300,2013-03-31 03:25:00
10:51 PM,39.2,37.4,93,29.86,4.0,NW,4.6,-,N/A,,Overcast,310,2013-03-31 03:51:00
10:55 PM,38.3,38.1,99,29.86,3.0,NW,3.5,-,N/A,,Overcast,310,2013-03-31 03:55:00
11:38 PM,37.4,37.4,100,29.85,2.5,West,5.8,-,N/A,,Overcast,280,2013-03-31 04:38:00
11:48 PM,35.6,35.6,100,29.84,3.0,West,5.8,-,N/A,,Overcast,270,2013-03-31 04:48:00
11:55 PM,36.0,35.6,99,29.84,6.0,West,5.8,-,N/A,,Overcast,260,2013-03-31 04:55:00